Hourly Data Report for January 11, 2003

SHERBROOKE A
QUEBEC

45°26'00.000" N
71°41'00.000" W
241.40 m
7028124
71610
YSC

Download Data

Hourly Data (January 2003)
Hourly Data Report for January 11, 2003
TIME
LST
Temp Definition
°C
Dew Point Definition
°C
Rel Hum Definition
%
Precip. Amount Definition
mm

Wind Dir Definition
10's deg

Wind Spd Definition
km/h
Visibility Definition
km
Stn Press Definition
kPa
Hmdx Definition


Wind Chill Definition


Weather Definition


00:00 -20.5 -24.8 68     0 15.0 96.96      
01:00 -18.9 -23.1 69   9 4 2.4 96.98   -22 Snow
02:00 -16.5 -20.3 72   22 6 1.4 97.03   -21 Snow
03:00 -15.9 -19.4 74   27 9 2.3 97.11   -22 Snow
04:00 -15.3 -19.2 72   27 13 6.4 97.16   -23  
05:00 -16.7 -22.0 63   26 11 15.0 97.17   -24  
06:00 -16.5 -21.3 66   26 11 5.6 97.27   -23 Snow
07:00 -18.6 -23.4 66   26 9 15.0 97.36   -25  
08:00 -18.0 -22.9 65   25 13 24.1 97.44   -26 Snow Showers
09:00 -17.3 -22.6 63   24 9 16.1 97.55   -24 Snow Showers
10:00 -16.5 -23.5 55   26 20 24.1 97.62   -26 Mostly Cloudy
11:00 -16.2 -23.2 55   26 24 19.3 97.61   -27 Snow Showers
12:00 -15.6 -23.4 51   27 17 24.1 97.56   -24 Mainly Clear
13:00 -15.2 -23.5 49   25 22 24.1 97.55   -25 Mainly Clear
14:00 -14.3 -23.2 47   24 22 24.1 97.58   -24 Mainly Clear
15:00 -14.4 -22.9 48   23 15 24.1 97.63   -22 Mainly Clear
16:00 -15.4 -22.3 55   23 13 24.1 97.68   -23 Mainly Clear
17:00 -16.2 -22.4 59   25 9 24.1 97.77   -22 Mainly Clear
18:00 -16.7 -22.0 63   24 9 15.0 97.83   -23  
19:00 -17.0 -21.8 66   22 9 15.0 97.87   -23  
20:00 -18.1 -22.3 70   21 6 15.0 97.88   -23  
21:00 -16.4 -20.8 69   25 11 15.0 97.90   -23  
22:00 -14.9 -19.7 67   23 11 8.0 97.89   -21 Snow
23:00 -14.9 -19.3 69   23 11 8.0 97.89   -21 Snow

Notes on Data Quality.

Legend

  • E = Estimated
  • M = Missing
  • NA = Not Available*
  • [empty] = Indicates an unobserved value
Date modified: